• In India
  • List of Countries
  • For 7 days
  • Water Temperature
  • Satellite Maps
  • Weather Map
  • Weather Widgets
  • user-avatar
    Login

    Hourly Weather Barbacoas

    Today, 15 August, Wednesday

    Time Temperature Precipitation Wind Pressure Humidity
    00:00 +24°C° 0 mm 0 mps 752 mmHg 91%
    01:00 +23°C° 0 mm 0 mps 752 mmHg 92%
    02:00 +23°C° 0 mm 0 mps 751 mmHg 92%
    03:00 +23°C° 0 mm 0 mps 751 mmHg 92%
    04:00 +23°C° 0 mm 0 mps 751 mmHg 92%
    05:00 +23°C° 0 mm 0 mps 751 mmHg 91%
    06:00 +23°C° 0 mm 0 mps 751 mmHg 90%
    07:00 +23°C° 0 mm 0 mps 751 mmHg 89%
    08:00 +27°C° 0 mm 1 mps 752 mmHg 82%
    09:00 +29°C° 0 mm 1 mps 752 mmHg 75%
    10:00 +30°C° 0 mm 1 mps 752 mmHg 68%
    11:00 +31°C° 0.1 mm 1 mps 751 mmHg 67%
    12:00 +31°C° 0.1 mm 2 mps 751 mmHg 66%
    13:00 +31°C° 0.1 mm 2 mps 750 mmHg 65%
    14:00 +31°C° 0.1 mm 2 mps 750 mmHg 69%
    15:00 +30°C° 0.1 mm 2 mps 750 mmHg 73%
    16:00 +29°C° 0.1 mm 1 mps 749 mmHg 76%
    17:00 +28°C° 0.1 mm 1 mps 750 mmHg 80%
    18:00 +27°C° 0.1 mm 1 mps 750 mmHg 84%
    19:00 +27°C° 0.1 mm 1 mps 751 mmHg 87%
    20:00 +26°C° 0 mm 1 mps 752 mmHg 88%
    21:00 +26°C° 0 mm 1 mps 752 mmHg 88%
    22:00 +24°C° 0 mm 0 mps 753 mmHg 89%
    23:00 +23°C° 0 mm 0 mps 753 mmHg 90%

    Tomorrow, 16 August, Thursday

    Time Temperature Precipitation Wind Pressure Humidity
    00:00 +23°C° 0 mm 0 mps 752 mmHg 90%
    01:00 +23°C° 0 mm 0 mps 752 mmHg 91%
    02:00 +23°C° 0 mm 0 mps 752 mmHg 91%
    03:00 +25°C° 0 mm 1 mps 752 mmHg 91%
    04:00 +25°C° 0 mm 1 mps 751 mmHg 91%
    05:00 +25°C° 0 mm 1 mps 751 mmHg 89%
    06:00 +25°C° 0 mm 1 mps 752 mmHg 88%
    07:00 +26°C° 0 mm 1 mps 752 mmHg 87%
    08:00 +27°C° 0 mm 1 mps 752 mmHg 81%
    09:00 +29°C° 0 mm 1 mps 752 mmHg 74%
    10:00 +31°C° 0 mm 1 mps 753 mmHg 68%
    11:00 +31°C° 0.1 mm 1 mps 752 mmHg 67%
    12:00 +31°C° 0.1 mm 1 mps 752 mmHg 66%
    13:00 +32°C° 0.1 mm 1 mps 751 mmHg 65%
    14:00 +31°C° 0.2 mm 1 mps 751 mmHg 68%
    15:00 +30°C° 0.2 mm 1 mps 750 mmHg 71%
    16:00 +30°C° 0.2 mm 1 mps 750 mmHg 74%
    17:00 +29°C° 0.3 mm 1 mps 750 mmHg 78%
    18:00 +28°C° 0.3 mm 1 mps 751 mmHg 83%
    19:00 +27°C° 0.3 mm 1 mps 752 mmHg 87%
    20:00 +27°C° 0.1 mm 1 mps 752 mmHg 88%
    21:00 +26°C° 0.1 mm 1 mps 753 mmHg 89%
    22:00 +26°C° 0.1 mm 1 mps 754 mmHg 90%
    23:00 +26°C° 0 mm 1 mps 754 mmHg 91%

    Day after tomorrow, 17 August, Friday

    Time Temperature Precipitation Wind Pressure Humidity
    00:00 +26°C° 0 mm 1 mps 753 mmHg 91%
    01:00 +26°C° 0 mm 1 mps 753 mmHg 92%
    02:00 +25°C° 0 mm 1 mps 753 mmHg 91%
    03:00 +25°C° 0 mm 1 mps 752 mmHg 91%
    04:00 +25°C° 0 mm 1 mps 752 mmHg 91%
    05:00 +25°C° 0 mm 1 mps 752 mmHg 90%
    06:00 +26°C° 0 mm 1 mps 752 mmHg 89%
    07:00 +26°C° 0 mm 1 mps 753 mmHg 88%
    08:00 +27°C° 0 mm 1 mps 753 mmHg 81%
    09:00 +29°C° 0 mm 1 mps 753 mmHg 75%
    10:00 +31°C° 0 mm 1 mps 753 mmHg 68%
    11:00 +31°C° 0.1 mm 2 mps 753 mmHg 67%
    12:00 +32°C° 0.1 mm 2 mps 752 mmHg 65%
    13:00 +32°C° 0.1 mm 2 mps 751 mmHg 63%
    14:00 +31°C° 0.2 mm 2 mps 751 mmHg 66%
    15:00 +31°C° 0.2 mm 2 mps 750 mmHg 69%
    16:00 +30°C° 0.2 mm 2 mps 750 mmHg 72%
    17:00 +29°C° 0.2 mm 2 mps 751 mmHg 77%
    18:00 +28°C° 0.2 mm 1 mps 751 mmHg 82%
    19:00 +27°C° 0.2 mm 1 mps 752 mmHg 86%
    20:00 +27°C° 0.1 mm 1 mps 753 mmHg 87%
    21:00 +26°C° 0.1 mm 1 mps 753 mmHg 88%
    22:00 +26°C° 0.1 mm 1 mps 754 mmHg 89%
    23:00 +26°C° 0 mm 1 mps 754 mmHg 90%

    18 August, Saturday

    Time Temperature Precipitation Wind Pressure Humidity
    00:00 +26°C° 0 mm 1 mps 753 mmHg 90%
    01:00 +25°C° 0 mm 1 mps 753 mmHg 90%
    02:00 +25°C° 0 mm 1 mps 753 mmHg 90%
    03:00 +25°C° 0 mm 1 mps 752 mmHg 91%
    04:00 +25°C° 0 mm 1 mps 752 mmHg 91%
    05:00 +25°C° 0 mm 1 mps 752 mmHg 90%
    06:00 +25°C° 0 mm 1 mps 752 mmHg 89%
    07:00 +26°C° 0 mm 1 mps 753 mmHg 88%
    08:00 +27°C° 0 mm 1 mps 753 mmHg 81%
    09:00 +29°C° 0 mm 1 mps 753 mmHg 75%
    10:00 +31°C° 0 mm 2 mps 753 mmHg 68%
    11:00 +31°C° 0 mm 2 mps 752 mmHg 66%
    12:00 +32°C° 0 mm 2 mps 751 mmHg 64%
    13:00 +32°C° 0 mm 2 mps 751 mmHg 61%
    14:00 +32°C° 0.1 mm 2 mps 750 mmHg 64%
    15:00 +31°C° 0.1 mm 2 mps 750 mmHg 66%
    16:00 +30°C° 0.1 mm 2 mps 749 mmHg 69%
    17:00 +29°C° 0.1 mm 1 mps 750 mmHg 74%
    18:00 +28°C° 0.1 mm 1 mps 751 mmHg 80%
    19:00 +27°C° 0.1 mm 1 mps 751 mmHg 85%
    20:00 +27°C° 0.1 mm 1 mps 752 mmHg 87%
    21:00 +26°C° 0.1 mm 1 mps 752 mmHg 88%
    22:00 +26°C° 0.1 mm 1 mps 753 mmHg 89%
    23:00 +26°C° 0 mm 1 mps 753 mmHg 89%

    19 August, Sunday

    Time Temperature Precipitation Wind Pressure Humidity
    00:00 +25°C° 0 mm 1 mps 752 mmHg 90%
    01:00 +25°C° 0 mm 1 mps 752 mmHg 90%
    02:00 +25°C° 0 mm 1 mps 752 mmHg 90%
    03:00 +25°C° 0 mm 1 mps 751 mmHg 90%
    04:00 +25°C° 0 mm 1 mps 751 mmHg 89%
    05:00 +25°C° 0 mm 1 mps 751 mmHg 88%
    06:00 +26°C° 0 mm 1 mps 752 mmHg 87%
    07:00 +26°C° 0 mm 1 mps 752 mmHg 86%
    08:00 +27°C° 0 mm 1 mps 752 mmHg 80%
    09:00 +29°C° 0 mm 1 mps 752 mmHg 73%
    10:00 +31°C° 0 mm 1 mps 752 mmHg 67%
    11:00 +31°C° 0.1 mm 2 mps 752 mmHg 65%
    12:00 +32°C° 0.1 mm 2 mps 751 mmHg 64%
    13:00 +32°C° 0.1 mm 2 mps 750 mmHg 63%
    14:00 +31°C° 0.2 mm 2 mps 750 mmHg 66%
    15:00 +31°C° 0.2 mm 2 mps 750 mmHg 69%
    16:00 +30°C° 0.2 mm 2 mps 749 mmHg 72%
    17:00 +29°C° 0.2 mm 1 mps 750 mmHg 77%
    18:00 +28°C° 0.2 mm 1 mps 751 mmHg 81%
    19:00 +27°C° 0.2 mm 1 mps 751 mmHg 86%
    20:00 +27°C° 0 mm 1 mps 752 mmHg 87%
    21:00 +26°C° 0 mm 1 mps 752 mmHg 88%
    22:00 +26°C° 0 mm 1 mps 753 mmHg 89%
    23:00 +26°C° 0 mm 1 mps 752 mmHg 89%

    20 August, Monday

    Time Temperature Precipitation Wind Pressure Humidity
    00:00 +26°C° 0 mm 1 mps 752 mmHg 90%
    01:00 +25°C° 0 mm 1 mps 752 mmHg 90%
    02:00 +25°C° 0 mm 1 mps 751 mmHg 91%
    03:00 +25°C° 0 mm 1 mps 751 mmHg 92%
    04:00 +25°C° 0 mm 1 mps 751 mmHg 92%
    05:00 +25°C° 0 mm 1 mps 751 mmHg 91%
    06:00 +25°C° 0 mm 1 mps 752 mmHg 90%
    07:00 +26°C° 0 mm 1 mps 752 mmHg 89%
    08:00 +27°C° 0 mm 1 mps 752 mmHg 82%
    09:00 +29°C° 0 mm 1 mps 752 mmHg 75%
    10:00 +31°C° 0 mm 1 mps 753 mmHg 68%
    11:00 +31°C° 0.1 mm 1 mps 752 mmHg 65%
    12:00 +32°C° 0.1 mm 2 mps 751 mmHg 62%
    13:00 +34°C° 0.1 mm 2 mps 751 mmHg 59%
    14:00 +32°C° 0.1 mm 2 mps 750 mmHg 63%
    15:00 +31°C° 0.1 mm 2 mps 750 mmHg 67%
    16:00 +30°C° 0.1 mm 2 mps 750 mmHg 71%
    17:00 +29°C° 0.1 mm 1 mps 750 mmHg 76%
    18:00 +28°C° 0.1 mm 1 mps 751 mmHg 81%
    19:00 +27°C° 0.1 mm 1 mps 752 mmHg 85%
    20:00 +27°C° 0 mm 1 mps 752 mmHg 86%
    21:00 +27°C° 0 mm 1 mps 752 mmHg 88%
    22:00 +26°C° 0 mm 1 mps 753 mmHg 89%
    23:00 +26°C° 0.1 mm 1 mps 753 mmHg 90%
    Show more